GFSFLT1_850_rhum_081.txt.gz
RH
100 99 100 100 98 97 97 96 89 82 79 75 69 73 68 64 60 47 41 54 63 79 85 88 86 87 83 81 68 53 56 52
97 99 90 84 91 89 88 84 82 78 72 73 76 65 59 57 50 54 53 61 78 89 86 80 85 83 77 73 57 58 59 58
98 90 96 86 77 82 79 68 72 80 76 68 71 61 63 62 57 58 64 77 82 85 81 75 85 80 77 71 58 57 60 60
90 97 99 93 75 60 52 53 54 54 51 62 64 70 66 61 51 56 58 75 77 77 82 86 85 77 73 71 64 59 64 68
83 83 77 67 58 56 59 68 69 68 71 71 71 78 84 70 68 59 70 73 74 76 80 80 79 80 74 73 69 61 75 73
76 80 65 58 63 67 76 85 85 81 76 74 86 88 78 75 71 62 71 77 74 79 84 83 91 88 78 74 70 62 74 79
55 57 74 75 63 64 66 79 83 87 79 80 86 81 71 71 73 67 70 76 70 74 81 87 97 93 85 76 73 67 68 76
64 60 58 69 73 69 63 65 78 77 79 71 80 74 68 71 75 75 72 67 73 73 77 91 95 94 86 80 77 76 78 78
56 55 55 63 65 65 67 61 68 75 76 77 72 71 67 71 75 77 74 71 71 70 77 90 93 93 88 83 81 83 79 79
50 50 53 59 59 57 56 63 65 75 80 79 79 79 76 75 79 78 72 68 71 74 81 95 94 93 90 90 94 93 88 85
46 47 46 50 49 50 53 56 56 51 63 75 75 75 77 77 77 78 74 68 82 78 90 99 99 94 96 99 98 98 93 94
29 39 41 43 45 49 51 54 59 64 64 64 72 74 78 81 82 70 73 70 95 94 92 95 95 97 92 90 95 97 88 88
21 21 33 44 44 46 54 52 57 65 70 72 73 75 78 75 87 87 92 88 96 98 100 97 97 99 85 96 98 90 87 88
22 22 21 40 45 45 49 52 61 67 72 72 70 75 78 74 88 85 100 100 98 99 100 100 99 99 100 100 90 93 89 94
18 25 25 23 38 46 48 50 57 62 68 72 72 78 84 73 72 73 99 100 100 96 94 99 100 100 99 93 92 88 86 77
17 26 28 30 33 48 52 54 59 67 70 68 71 74 72 72 65 79 99 98 95 99 100 99 90 89 94 93 84 73 79 82
17 21 29 34 38 42 49 54 61 61 60 63 63 71 87 98 95 98 99 100 100 100 94 88 90 98 96 80 68 75 78 74
20 21 22 38 43 46 52 59 59 61 65 75 97 100 99 99 98 100 100 100 100 95 94 94 96 86 88 78 79 78 78 77
32 31 35 48 52 55 58 61 65 86 99 99 99 98 99 99 100 100 100 100 97 95 91 90 81 87 92 87 87 80 68 54

GFSFLT1_850_rhum_084.txt.gz
RH
99 100 99 100 100 100 100 100 99 92 70 68 71 63 64 69 64 52 60 54 78 72 78 84 79 82 84 82 80 76 54 49
96 100 99 100 100 100 100 100 98 85 78 82 67 68 74 79 62 56 68 84 74 75 74 76 81 84 81 84 83 80 51 53
100 96 98 95 98 99 98 96 97 99 86 81 76 85 78 64 57 56 64 65 62 56 70 77 82 87 87 85 82 74 52 57
98 96 81 75 83 94 97 89 88 86 77 69 64 64 66 62 56 58 62 53 52 62 70 70 79 83 85 82 74 68 56 56
61 80 81 78 81 79 91 93 86 79 71 67 68 68 62 61 55 53 49 46 51 67 71 80 87 86 89 81 72 70 60 56
36 58 68 68 75 70 69 66 70 71 69 64 63 66 61 62 58 52 42 43 52 66 79 86 87 93 91 82 74 72 68 57
48 41 54 68 67 61 60 57 56 57 56 55 57 59 59 59 53 52 62 63 65 72 84 87 85 90 92 87 78 75 73 66
61 66 59 55 51 54 57 65 70 70 69 71 70 68 68 70 70 69 76 66 68 70 74 78 82 86 93 92 89 79 74 73
60 55 50 50 52 52 57 64 71 80 84 86 78 76 76 71 74 70 68 65 55 55 75 73 81 90 97 96 89 82 81 90
62 61 61 54 48 48 48 52 56 64 74 82 85 78 77 73 69 68 67 74 73 68 70 77 88 96 100 96 89 87 88 94
64 64 60 56 52 46 55 56 56 53 62 67 73 78 76 73 73 68 69 72 70 70 77 80 81 94 100 99 97 91 90 94
50 49 47 50 54 59 60 66 66 65 58 57 65 70 77 80 77 74 74 78 73 71 75 86 81 90 92 93 96 94 95 86
34 34 34 45 49 63 62 65 61 62 58 59 55 66 76 79 77 86 84 83 80 74 79 95 88 94 96 95 96 95 96 94
30 32 35 37 41 47 52 54 51 59 60 60 61 64 68 71 75 78 93 85 82 95 91 95 94 87 87 92 96 99 96 100
24 28 29 28 30 37 43 46 47 50 55 55 58 62 66 71 78 92 98 78 59 92 99 95 94 93 100 100 100 99 99 100
18 23 26 23 23 29 34 42 46 48 54 62 64 67 75 75 68 86 64 82 73 88 100 100 98 100 100 100 99 100 100 95
17 18 26 29 30 30 37 45 46 50 56 61 67 70 71 72 67 79 72 99 100 100 100 100 98 100 100 100 99 94 90 87
19 16 22 30 34 36 38 43 52 59 60 65 70 69 83 100 100 98 99 100 100 100 100 99 100 100 100 100 99 93 78 82
26 23 22 31 38 42 45 52 63 63 58 63 82 97 99 97 96 98 97 99 100 100 100 100 100 100 99 96 92 82 78 77

GFSFLT1_850_rhum_087.txt.gz
RH
90 99 100 100 100 99 100 100 100 99 86 85 80 62 51 47 60 70 52 52 52 47 56 62 57 65 71 75 80 72 67 50
97 100 99 99 100 100 100 100 99 97 82 80 64 76 58 58 60 65 55 52 44 58 71 66 70 70 72 80 82 78 74 59
98 98 98 100 100 100 99 100 99 94 92 74 68 88 78 70 63 63 57 52 53 69 77 75 76 75 86 86 84 80 80 62
99 98 99 98 99 98 100 100 99 97 90 74 67 70 73 91 69 58 55 59 59 61 68 72 78 78 80 83 84 83 82 70
83 91 92 99 99 99 88 83 97 98 86 76 79 73 76 74 73 62 57 58 61 60 68 80 80 80 78 85 84 85 84 76
39 62 75 74 85 81 80 81 83 84 91 88 82 76 77 85 72 62 59 60 63 63 65 79 74 80 76 83 86 90 85 73
38 42 71 69 68 71 66 62 68 75 80 78 68 64 65 68 64 61 58 58 61 57 52 55 64 73 78 84 88 95 90 76
49 40 52 58 61 62 57 60 59 66 72 70 64 64 66 64 61 59 55 51 51 49 42 49 63 73 78 83 92 98 93 80
44 39 40 49 41 39 46 46 44 50 59 63 61 60 59 60 56 53 49 46 38 37 46 56 63 69 74 79 97 100 97 86
44 42 35 33 40 36 38 42 45 51 52 51 49 47 48 48 44 43 44 50 56 64 60 56 63 74 78 87 93 97 98 93
52 49 44 38 33 39 41 45 52 58 61 62 64 66 66 67 67 68 69 64 66 69 71 75 69 71 85 86 88 98 99 95
44 42 47 47 45 42 43 45 49 54 61 72 79 80 81 81 74 72 74 78 77 74 76 78 81 89 95 86 96 98 99 95
36 37 44 56 56 58 52 48 48 48 47 58 58 62 74 76 79 83 87 88 85 81 82 86 97 100 91 91 100 99 98 98
36 45 51 50 52 60 64 62 57 54 55 55 57 62 61 61 65 71 77 85 100 100 99 90 88 99 98 99 98 92 88 86
27 33 38 35 39 43 48 52 53 59 61 63 63 63 61 60 64 70 75 90 86 62 70 76 82 100 98 93 95 98 100 99
23 28 28 27 33 34 37 39 46 50 58 65 64 66 68 72 75 80 82 85 91 76 70 74 82 100 99 95 89 96 100 100
19 20 25 25 24 26 28 30 34 41 49 59 68 73 77 81 85 88 95 100 100 99 78 94 95 100 100 100 94 96 100 100
18 18 18 21 25 28 28 32 40 50 59 66 67 72 78 82 90 100 100 99 100 96 92 99 100 99 100 100 100 100 100 100
19 18 18 20 27 32 35 40 44 50 60 62 65 73 81 98 100 99 99 97 95 100 100 100 100 100 100 100 99 96 97 99

GFSFLT1_850_rhum_093.txt.gz
RH
96 99 95 89 99 100 99 98 100 100 98 97 98 95 87 90 81 72 76 68 48 48 48 52 57 63 64 60 69 71 72 68
98 98 99 96 98 94 99 99 100 96 100 99 100 94 96 70 72 66 68 69 64 59 57 57 57 65 55 59 73 75 76 61
99 98 100 98 98 97 99 97 100 100 100 100 99 94 69 52 69 73 71 75 60 58 65 67 58 66 63 64 70 76 77 66
94 97 99 100 98 100 97 93 100 99 100 98 90 72 60 68 87 68 75 63 62 62 80 70 62 58 52 58 71 78 81 74
76 92 88 97 93 95 100 99 100 99 99 92 76 71 73 76 87 77 72 62 58 70 66 64 57 56 51 62 69 77 86 85
67 71 66 90 98 94 94 99 100 100 95 82 71 80 85 84 76 73 58 55 60 61 69 76 62 54 60 74 81 88 88 90
61 67 86 72 98 100 98 98 99 100 100 90 75 69 83 79 75 64 54 54 58 78 75 68 63 69 71 68 69 79 86 97
58 60 70 68 81 88 94 99 100 99 99 93 83 81 71 69 79 64 54 63 66 68 69 78 75 65 66 68 67 74 80 80
54 51 49 36 51 61 68 73 86 98 99 98 95 91 77 68 64 62 54 58 67 64 69 67 64 64 65 68 61 58 58 58
44 49 47 31 37 42 50 59 66 74 80 89 94 89 86 76 72 66 70 68 71 65 60 57 62 65 65 64 60 58 58 53
45 46 45 41 28 38 42 42 44 51 66 76 77 79 78 75 75 79 79 75 70 68 65 65 69 63 61 60 56 59 62 71
36 42 47 48 40 29 36 40 36 37 43 50 61 64 65 67 62 62 63 66 66 67 65 64 61 59 58 59 60 69 87 92
33 38 46 50 45 41 34 37 37 34 36 38 40 41 43 43 48 45 51 55 58 58 57 58 57 54 52 61 75 76 82 89
33 34 39 42 43 42 42 41 36 39 39 38 37 39 40 40 38 37 39 40 40 43 46 51 56 66 81 88 94 97 98 91
26 26 27 35 38 38 36 41 46 43 41 40 40 39 40 44 48 51 54 57 61 66 70 74 75 77 85 85 69 78 100 99
18 19 20 25 29 31 27 32 36 44 52 51 48 47 46 50 53 58 59 60 61 64 72 76 78 81 81 88 87 100 100 84
17 16 17 19 19 21 23 27 33 45 50 54 63 64 62 58 57 57 62 66 73 82 89 88 88 93 93 95 100 100 99 100
20 18 17 17 17 22 29 35 41 44 52 61 65 70 73 75 78 81 87 90 92 92 92 100 100 99 100 100 100 100 100 100
20 20 19 19 20 20 25 34 45 51 58 64 70 76 80 86 94 97 98 98 100 100 100 100 99 100 100 100 100 100 100 100

GFSFLT1_850_rhum_099.txt.gz
RH
54 62 75 96 100 88 94 98 94 87 92 94 93 91 95 96 100 100 95 86 86 83 54 67 80 81 80 79 72 69 67 61
48 62 79 93 96 87 88 98 99 92 98 95 99 97 100 100 100 98 98 91 96 64 64 89 83 81 79 75 74 74 72 68
51 66 79 100 98 85 85 98 100 95 98 100 100 100 100 100 100 99 97 98 88 89 82 80 75 77 77 78 79 79 74 74
47 62 75 94 100 94 82 93 100 99 99 98 98 100 100 100 100 100 100 100 84 86 77 82 68 74 73 73 78 82 81 80
40 55 71 86 100 99 98 86 96 99 99 97 97 99 99 100 100 100 100 100 84 76 87 78 58 72 80 66 59 63 80 84
38 50 62 78 94 100 98 99 92 98 99 93 95 90 90 91 92 96 100 90 86 90 87 66 57 78 87 64 59 64 66 76
37 48 56 73 96 100 100 94 92 96 100 99 87 86 91 95 100 99 96 100 97 82 80 72 65 68 65 60 58 64 63 71
38 46 54 67 92 100 99 99 92 93 99 100 99 98 95 96 91 91 93 93 99 91 87 74 70 76 75 63 62 70 62 58
38 43 50 57 81 93 97 99 99 91 99 99 100 100 98 86 91 98 91 86 81 80 87 87 69 65 63 63 60 65 72 74
36 41 49 53 70 81 91 94 96 98 100 98 99 97 94 74 69 76 82 84 77 68 71 67 68 66 65 61 67 71 71 71
34 38 48 52 64 75 86 82 84 94 98 100 100 97 97 96 77 75 84 93 90 89 79 74 68 67 67 65 61 75 73 78
31 36 44 51 61 67 83 80 77 86 93 98 99 99 96 96 90 93 88 89 88 83 80 76 80 83 81 82 80 74 83 88
28 35 41 49 57 63 75 78 73 76 86 93 97 99 96 93 93 90 90 90 86 85 82 83 85 86 86 86 85 87 88 85
31 35 40 48 55 61 66 76 74 73 76 83 89 95 95 94 95 93 90 92 92 92 89 88 87 86 88 88 88 86 87 90
28 33 38 43 50 59 63 74 76 75 76 79 82 87 90 91 93 94 95 94 93 92 91 93 93 92 90 89 87 88 88 90
25 30 35 40 46 54 60 67 80 79 78 79 80 85 89 90 93 96 97 98 96 95 94 94 94 92 91 90 88 87 91 97
18 23 30 36 41 48 54 60 70 78 78 79 79 84 88 91 93 95 97 96 95 97 94 93 91 96 94 93 98 97 97 100
18 19 23 30 38 45 50 58 64 72 73 76 79 82 85 88 91 95 95 94 93 94 94 98 98 98 96 97 100 100 100 100
19 21 24 27 36 45 52 59 66 74 74 73 76 81 84 86 87 90 93 96 94 93 95 97 98 100 100 100 100 100 100 100